Time,TemperatureF,DewpointF,PressureIn,WindDirection,WindDirectionDegrees,WindSpeedMPH,WindSpeedGustMPH,Humidity,HourlyPrecipIn,Conditions,Clouds,dailyrainin,SoftwareType,DateUTC
2013-01-16 00:00:00,38.5,33.8,30.20,NE,48,0.0,0.0,83,0.00,,,0.15,LWC V2.10 B1702,2013-01-16 05:00:00,
2013-01-16 00:02:00,38.5,33.8,30.20,NE,48,0.0,0.0,83,0.00,,,0.00,LWC V2.10 B1702,2013-01-16 05:02:00,
2013-01-16 00:07:00,38.5,33.8,30.20,NE,48,0.0,0.0,83,0.00,,,0.00,LWC V2.10 B1702,2013-01-16 05:07:00,
2013-01-16 00:12:00,38.5,33.5,30.20,NNE,19,0.0,0.0,82,0.00,,,0.00,LWC V2.10 B1702,2013-01-16 05:12:00,
2013-01-16 00:17:00,38.5,33.8,30.20,NNE,19,0.0,0.0,83,0.00,,,0.00,LWC V2.10 B1702,2013-01-16 05:17:00,
2013-01-16 00:22:00,38.5,33.8,30.20,NNE,19,0.0,0.0,83,0.00,,,0.00,LWC V2.10 B1702,2013-01-16 05:22:00,
2013-01-16 00:27:00,38.5,33.8,30.20,NNE,19,0.0,0.0,83,0.00,,,0.00,LWC V2.10 B1702,2013-01-16 05:27:00,
2013-01-16 00:32:00,38.6,34.2,30.20,NNE,19,0.0,0.0,84,0.00,,,0.00,LWC V2.10 B1702,2013-01-16 05:32:00,
2013-01-16 00:37:00,38.6,34.2,30.21,NNE,19,0.0,0.0,84,0.00,,,0.00,LWC V2.10 B1702,2013-01-16 05:37:00,
2013-01-16 00:42:00,38.5,34.1,30.21,NNE,19,0.0,0.0,84,0.00,,,0.00,LWC V2.10 B1702,2013-01-16 05:42:00,
2013-01-16 00:47:00,38.5,34.1,30.21,NNE,19,0.0,0.0,84,0.00,,,0.00,LWC V2.10 B1702,2013-01-16 05:47:00,
2013-01-16 00:52:00,38.5,34.1,30.21,NNE,19,0.0,0.0,84,0.00,,,0.00,LWC V2.10 B1702,2013-01-16 05:52:00,
2013-01-16 00:57:00,38.5,34.4,30.21,NNE,19,0.0,0.0,85,0.00,,,0.00,LWC V2.10 B1702,2013-01-16 05:57:00,
2013-01-16 01:02:00,38.5,34.7,30.21,NNE,19,0.0,0.0,86,0.00,,,0.00,LWC V2.10 B1702,2013-01-16 06:02:00,
2013-01-16 01:07:00,38.5,34.7,30.21,NNE,19,0.0,0.0,86,0.00,,,0.01,LWC V2.10 B1702,2013-01-16 06:07:00,
2013-01-16 01:12:00,38.5,35.0,30.21,NNE,19,0.0,0.0,87,0.00,,,0.01,LWC V2.10 B1702,2013-01-16 06:12:00,
2013-01-16 01:17:00,38.5,35.0,30.21,NNE,19,0.0,0.0,87,0.00,,,0.01,LWC V2.10 B1702,2013-01-16 06:17:00,
2013-01-16 01:22:00,38.4,35.2,30.21,NNE,19,0.0,0.0,88,0.00,,,0.01,LWC V2.10 B1702,2013-01-16 06:22:00,
2013-01-16 01:27:00,38.4,35.2,30.21,NNE,19,0.0,0.0,88,0.00,,,0.02,LWC V2.10 B1702,2013-01-16 06:27:00,
2013-01-16 01:32:00,38.3,35.1,30.21,NNE,19,0.0,0.0,88,0.00,,,0.02,LWC V2.10 B1702,2013-01-16 06:32:00,
2013-01-16 01:37:00,38.2,35.2,30.21,NNE,19,0.0,0.0,89,0.05,,,0.03,LWC V2.10 B1702,2013-01-16 06:37:00,
2013-01-16 01:42:00,38.2,35.2,30.20,NNE,19,0.0,0.0,89,0.05,,,0.03,LWC V2.10 B1702,2013-01-16 06:42:00,
2013-01-16 01:47:00,38.1,35.2,30.21,NNE,19,0.0,0.0,89,0.05,,,0.03,LWC V2.10 B1702,2013-01-16 06:47:00,
2013-01-16 01:52:00,38.0,35.3,30.22,NNE,19,0.0,0.0,90,0.04,,,0.03,LWC V2.10 B1702,2013-01-16 06:52:00,
2013-01-16 01:58:00,38.0,35.3,30.22,NNE,19,0.0,0.0,90,0.00,,,0.03,LWC V2.10 B1702,2013-01-16 06:58:00,
2013-01-16 02:02:00,37.9,35.2,30.22,NNE,19,0.0,0.0,90,0.00,,,0.03,LWC V2.10 B1702,2013-01-16 07:02:00,
2013-01-16 02:07:00,37.9,35.2,30.21,NNE,19,0.0,0.0,90,0.00,,,0.04,LWC V2.10 B1702,2013-01-16 07:07:00,
2013-01-16 02:10:00,37.9,35.2,30.21,NNE,19,0.0,0.0,90,0.00,,,0.04,LWC V2.10 B1702,2013-01-16 07:10:00,
2013-01-16 02:15:00,37.9,35.2,30.20,NNE,19,0.0,0.0,90,0.00,,,0.04,LWC V2.10 B1702,2013-01-16 07:15:00,
2013-01-16 02:20:00,37.9,35.2,30.20,NNE,19,0.0,0.0,90,0.00,,,0.04,LWC V2.10 B1702,2013-01-16 07:20:00,
2013-01-16 02:25:00,37.8,35.4,30.20,NNE,19,0.0,0.0,91,0.00,,,0.04,LWC V2.10 B1702,2013-01-16 07:25:00,
2013-01-16 02:30:00,37.8,35.4,30.20,NNE,19,0.0,0.0,91,0.00,,,0.04,LWC V2.10 B1702,2013-01-16 07:30:00,
2013-01-16 02:35:00,37.9,35.5,30.19,NNE,19,0.0,0.0,91,0.00,,,0.04,LWC V2.10 B1702,2013-01-16 07:35:00,
2013-01-16 02:40:00,37.9,35.5,30.19,NNE,19,0.0,0.0,91,0.00,,,0.04,LWC V2.10 B1702,2013-01-16 07:40:00,
2013-01-16 02:45:00,37.9,35.5,30.19,NNE,19,0.0,0.0,91,0.00,,,0.05,LWC V2.10 B1702,2013-01-16 07:45:00,
2013-01-16 02:50:00,37.9,35.5,30.18,NNE,19,0.0,0.0,91,0.00,,,0.05,LWC V2.10 B1702,2013-01-16 07:50:00,
2013-01-16 02:55:00,37.9,35.5,30.18,NNE,19,0.0,0.0,91,0.00,,,0.05,LWC V2.10 B1702,2013-01-16 07:55:00,
2013-01-16 03:00:00,37.9,35.5,30.18,NNE,19,0.0,0.0,91,0.00,,,0.05,LWC V2.10 B1702,2013-01-16 08:00:00,
2013-01-16 03:05:00,37.9,35.5,30.17,NNE,19,0.0,0.0,91,0.00,,,0.05,LWC V2.10 B1702,2013-01-16 08:05:00,
2013-01-16 03:10:00,37.9,35.5,30.17,NNE,19,0.0,0.0,91,0.00,,,0.05,LWC V2.10 B1702,2013-01-16 08:10:00,
2013-01-16 03:15:00,37.9,35.5,30.16,NNE,27,0.0,0.0,91,0.00,,,0.05,LWC V2.10 B1702,2013-01-16 08:15:00,
2013-01-16 03:20:00,38.0,35.9,30.15,ENE,63,0.0,0.0,92,0.00,,,0.06,LWC V2.10 B1702,2013-01-16 08:20:00,
2013-01-16 03:25:00,38.0,35.6,30.16,NE,44,0.0,0.0,91,0.00,,,0.06,LWC V2.10 B1702,2013-01-16 08:25:00,
2013-01-16 03:30:00,38.0,35.9,30.15,ENE,59,0.0,0.0,92,0.00,,,0.06,LWC V2.10 B1702,2013-01-16 08:30:00,
2013-01-16 03:35:00,38.0,35.9,30.15,ENE,59,0.0,0.0,92,0.00,,,0.06,LWC V2.10 B1702,2013-01-16 08:35:00,
2013-01-16 03:40:00,38.0,35.9,30.14,ENE,64,0.0,0.0,92,0.00,,,0.06,LWC V2.10 B1702,2013-01-16 08:40:00,
2013-01-16 03:45:00,38.0,35.9,30.14,ENE,64,0.0,0.0,92,0.00,,,0.07,LWC V2.10 B1702,2013-01-16 08:45:00,
2013-01-16 03:50:00,38.0,35.9,30.13,NNE,17,0.0,1.0,92,0.00,,,0.07,LWC V2.10 B1702,2013-01-16 08:50:00,
2013-01-16 03:55:00,38.0,35.9,30.13,NE,36,0.0,1.0,92,0.00,,,0.07,LWC V2.10 B1702,2013-01-16 08:55:00,
2013-01-16 04:00:00,38.0,35.9,30.12,NE,40,0.0,2.0,92,0.05,,,0.08,LWC V2.10 B1702,2013-01-16 09:00:00,
2013-01-16 04:05:00,38.0,35.9,30.12,NNE,26,0.0,0.0,92,0.05,,,0.08,LWC V2.10 B1702,2013-01-16 09:05:00,
2013-01-16 04:10:00,38.0,35.9,30.12,NE,48,0.0,1.0,92,0.05,,,0.09,LWC V2.10 B1702,2013-01-16 09:10:00,
2013-01-16 04:15:00,38.0,35.9,30.12,NE,53,0.0,0.0,92,0.05,,,0.09,LWC V2.10 B1702,2013-01-16 09:15:00,
2013-01-16 04:20:00,38.0,35.9,30.11,NE,54,0.0,1.0,92,0.05,,,0.09,LWC V2.10 B1702,2013-01-16 09:20:00,
2013-01-16 04:25:00,38.0,35.9,30.11,ENE,78,0.0,1.0,92,0.04,,,0.09,LWC V2.10 B1702,2013-01-16 09:25:00,
2013-01-16 04:30:00,38.0,35.9,30.11,ENE,78,1.0,1.0,92,0.00,,,0.10,LWC V2.10 B1702,2013-01-16 09:30:00,
2013-01-16 04:35:00,38.0,35.9,30.11,ENE,78,0.0,0.0,92,0.00,,,0.10,LWC V2.10 B1702,2013-01-16 09:35:00,
2013-01-16 04:40:00,37.9,35.8,30.12,East,84,1.0,2.0,92,0.00,,,0.10,LWC V2.10 B1702,2013-01-16 09:40:00,
2013-01-16 04:45:00,37.9,35.8,30.12,NE,41,0.0,1.0,92,0.00,,,0.10,LWC V2.10 B1702,2013-01-16 09:45:00,
2013-01-16 04:50:00,37.9,35.8,30.11,NE,50,0.0,0.0,92,0.00,,,0.10,LWC V2.10 B1702,2013-01-16 09:50:00,
2013-01-16 04:55:00,37.9,35.8,30.10,NE,40,0.0,1.0,92,0.00,,,0.11,LWC V2.10 B1702,2013-01-16 09:55:00,
2013-01-16 05:00:00,37.9,35.8,30.10,NE,46,2.0,3.0,92,0.00,,,0.11,LWC V2.10 B1702,2013-01-16 10:00:00,
2013-01-16 05:05:00,37.9,35.8,30.10,NNE,27,1.0,3.0,92,0.05,,,0.12,LWC V2.10 B1702,2013-01-16 10:05:00,
2013-01-16 05:10:00,37.9,35.8,30.11,NNE,31,1.0,2.0,92,0.05,,,0.12,LWC V2.10 B1702,2013-01-16 10:10:00,
2013-01-16 05:15:00,37.9,35.8,30.11,NNE,33,0.0,3.0,92,0.06,,,0.13,LWC V2.10 B1702,2013-01-16 10:15:00,
2013-01-16 05:20:00,37.8,35.7,30.11,NNE,32,0.0,0.0,92,0.06,,,0.13,LWC V2.10 B1702,2013-01-16 10:20:00,
2013-01-16 05:25:00,37.8,35.7,30.12,NE,40,0.0,1.0,92,0.10,,,0.14,LWC V2.10 B1702,2013-01-16 10:25:00,
2013-01-16 05:30:00,37.8,35.7,30.12,NNE,33,0.0,2.0,92,0.10,,,0.15,LWC V2.10 B1702,2013-01-16 10:30:00,
2013-01-16 05:35:00,37.8,35.7,30.12,NE,42,0.0,0.0,92,0.07,,,0.15,LWC V2.10 B1702,2013-01-16 10:35:00,
2013-01-16 05:40:00,37.8,35.7,30.11,NE,36,1.0,2.0,92,0.07,,,0.16,LWC V2.10 B1702,2013-01-16 10:40:00,
2013-01-16 05:45:00,37.8,35.7,30.11,ENE,59,0.0,3.0,92,0.09,,,0.17,LWC V2.10 B1702,2013-01-16 10:45:00,
2013-01-16 05:50:00,37.9,36.1,30.10,NE,51,0.0,3.0,93,0.07,,,0.17,LWC V2.10 B1702,2013-01-16 10:50:00,
2013-01-16 05:55:00,37.8,35.7,30.09,NE,52,0.0,1.0,92,0.07,,,0.18,LWC V2.10 B1702,2013-01-16 10:55:00,
2013-01-16 06:00:00,37.8,35.7,30.09,NE,42,0.0,3.0,92,0.06,,,0.18,LWC V2.10 B1702,2013-01-16 11:00:00,
2013-01-16 06:05:00,37.8,35.7,30.09,NE,34,0.0,1.0,92,0.06,,,0.19,LWC V2.10 B1702,2013-01-16 11:05:00,
2013-01-16 06:10:00,37.8,35.7,30.09,NNE,22,0.0,1.0,92,0.07,,,0.20,LWC V2.10 B1702,2013-01-16 11:10:00,
2013-01-16 06:15:00,37.8,35.7,30.09,ENE,71,0.0,1.0,92,0.12,,,0.21,LWC V2.10 B1702,2013-01-16 11:15:00,
2013-01-16 06:20:00,37.7,35.6,30.08,ENE,61,0.0,1.0,92,0.10,,,0.22,LWC V2.10 B1702,2013-01-16 11:20:00,
2013-01-16 06:25:00,37.7,35.6,30.08,NE,35,0.0,2.0,92,0.10,,,0.22,LWC V2.10 B1702,2013-01-16 11:25:00,
2013-01-16 06:30:00,37.6,35.5,30.07,NE,47,0.0,1.0,92,0.11,,,0.23,LWC V2.10 B1702,2013-01-16 11:30:00,
2013-01-16 06:35:00,37.6,35.5,30.07,NE,43,0.0,0.0,92,0.10,,,0.24,LWC V2.10 B1702,2013-01-16 11:35:00,
2013-01-16 06:40:00,37.5,35.7,30.06,East,84,0.0,0.0,93,0.11,,,0.25,LWC V2.10 B1702,2013-01-16 11:40:00,
2013-01-16 06:45:00,37.4,35.6,30.06,East,84,0.0,0.0,93,0.18,,,0.27,LWC V2.10 B1702,2013-01-16 11:45:00,
2013-01-16 06:50:00,37.4,35.6,30.07,NNE,18,1.0,3.0,93,0.15,,,0.28,LWC V2.10 B1702,2013-01-16 11:50:00,
2013-01-16 06:55:00,37.4,35.6,30.07,NNE,25,0.0,2.0,93,0.14,,,0.29,LWC V2.10 B1702,2013-01-16 11:55:00,
2013-01-16 07:00:00,37.3,35.5,30.07,NNE,25,0.0,0.0,93,0.08,,,0.30,LWC V2.10 B1702,2013-01-16 12:00:00,
2013-01-16 07:05:00,37.3,35.5,30.08,NNE,19,0.0,2.0,93,0.10,,,0.31,LWC V2.10 B1702,2013-01-16 12:05:00,
2013-01-16 07:10:00,37.3,35.5,30.05,NNE,33,0.0,1.0,93,0.11,,,0.32,LWC V2.10 B1702,2013-01-16 12:10:00,
2013-01-16 07:15:00,37.2,35.4,30.06,NNE,32,1.0,1.0,93,0.11,,,0.32,LWC V2.10 B1702,2013-01-16 12:15:00,
2013-01-16 07:20:00,37.2,35.4,30.06,NNE,15,2.0,2.0,93,0.18,,,0.34,LWC V2.10 B1702,2013-01-16 12:20:00,
2013-01-16 07:25:00,37.1,35.3,30.08,North,5,1.0,2.0,93,0.14,,,0.35,LWC V2.10 B1702,2013-01-16 12:25:00,
2013-01-16 07:30:00,37.0,35.2,30.08,North,5,0.0,0.0,93,0.11,,,0.36,LWC V2.10 B1702,2013-01-16 12:30:00,
2013-01-16 07:35:00,37.0,35.2,30.08,NNE,24,0.0,0.0,93,0.12,,,0.37,LWC V2.10 B1702,2013-01-16 12:35:00,
2013-01-16 07:40:00,36.9,35.1,30.08,North,11,0.0,2.0,93,0.11,,,0.38,LWC V2.10 B1702,2013-01-16 12:40:00,
2013-01-16 07:45:00,36.9,35.1,30.08,North,11,0.0,0.0,93,0.17,,,0.39,LWC V2.10 B1702,2013-01-16 12:45:00,
2013-01-16 07:50:00,36.9,35.1,30.08,North,11,0.0,0.0,93,0.14,,,0.41,LWC V2.10 B1702,2013-01-16 12:50:00,
2013-01-16 07:55:00,36.9,35.1,30.07,North,11,0.0,0.0,93,0.10,,,0.41,LWC V2.10 B1702,2013-01-16 12:55:00,
2013-01-16 08:00:00,36.9,35.1,30.07,North,11,0.0,0.0,93,0.09,,,0.42,LWC V2.10 B1702,2013-01-16 13:00:00,
2013-01-16 08:05:00,37.0,35.2,30.08,North,11,0.0,0.0,93,0.10,,,0.43,LWC V2.10 B1702,2013-01-16 13:05:00,
2013-01-16 08:10:00,37.0,35.2,30.07,North,11,0.0,0.0,93,0.08,,,0.44,LWC V2.10 B1702,2013-01-16 13:10:00,
2013-01-16 08:15:00,37.1,35.3,30.07,North,11,0.0,0.0,93,0.08,,,0.44,LWC V2.10 B1702,2013-01-16 13:15:00,
2013-01-16 08:20:00,37.1,35.3,30.06,ENE,57,0.0,0.0,93,0.07,,,0.45,LWC V2.10 B1702,2013-01-16 13:20:00,
2013-01-16 08:25:00,37.2,35.4,30.06,ENE,57,0.0,0.0,93,0.07,,,0.45,LWC V2.10 B1702,2013-01-16 13:25:00,
2013-01-16 08:30:00,37.2,35.4,30.06,ENE,57,0.0,0.0,93,0.06,,,0.46,LWC V2.10 B1702,2013-01-16 13:30:00,
2013-01-16 08:35:00,37.3,35.5,30.06,ENE,57,0.0,1.0,93,0.06,,,0.46,LWC V2.10 B1702,2013-01-16 13:35:00,
2013-01-16 08:40:00,37.4,35.6,30.05,ENE,57,0.0,0.0,93,0.05,,,0.46,LWC V2.10 B1702,2013-01-16 13:40:00,
2013-01-16 08:45:00,37.5,35.7,30.05,ENE,57,0.0,0.0,93,0.05,,,0.47,LWC V2.10 B1702,2013-01-16 13:45:00,
2013-01-16 08:50:00,37.5,35.7,30.06,ENE,57,0.0,0.0,93,0.05,,,0.47,LWC V2.10 B1702,2013-01-16 13:50:00,
2013-01-16 08:55:00,37.7,35.9,30.05,ENE,57,0.0,0.0,93,0.05,,,0.48,LWC V2.10 B1702,2013-01-16 13:55:00,
2013-01-16 09:00:00,37.8,36.2,30.04,ENE,57,0.0,1.0,94,0.05,,,0.48,LWC V2.10 B1702,2013-01-16 14:00:00,
2013-01-16 09:05:00,38.0,36.4,30.04,ENE,57,0.0,0.0,94,0.07,,,0.49,LWC V2.10 B1702,2013-01-16 14:05:00,
2013-01-16 09:10:00,38.3,36.7,30.05,ENE,57,0.0,0.0,94,0.07,,,0.50,LWC V2.10 B1702,2013-01-16 14:10:00,
2013-01-16 09:15:00,38.6,37.0,30.05,ENE,57,0.0,1.0,94,0.07,,,0.50,LWC V2.10 B1702,2013-01-16 14:15:00,
2013-01-16 09:20:00,38.8,37.2,30.03,ESE,104,0.0,1.0,94,0.06,,,0.51,LWC V2.10 B1702,2013-01-16 14:20:00,
2013-01-16 09:25:00,39.1,37.5,30.03,SE,130,0.0,0.0,94,0.06,,,0.51,LWC V2.10 B1702,2013-01-16 14:25:00,
2013-01-16 09:30:00,39.2,37.6,30.02,SE,130,0.0,0.0,94,0.05,,,0.51,LWC V2.10 B1702,2013-01-16 14:30:00,
2013-01-16 09:35:00,39.5,37.9,30.01,SSE,149,2.0,2.0,94,0.04,,,0.51,LWC V2.10 B1702,2013-01-16 14:35:00,
2013-01-16 09:40:00,39.9,38.3,30.00,SSE,166,1.0,6.0,94,0.00,,,0.51,LWC V2.10 B1702,2013-01-16 14:40:00,
2013-01-16 09:45:00,40.4,38.8,29.99,SE,141,0.0,4.0,94,0.00,,,0.51,LWC V2.10 B1702,2013-01-16 14:45:00,
2013-01-16 09:50:00,40.7,39.1,29.98,SE,128,0.0,3.0,94,0.00,,,0.51,LWC V2.10 B1702,2013-01-16 14:50:00,
2013-01-16 09:55:00,40.9,39.3,29.97,SE,129,2.0,3.0,94,0.00,,,0.52,LWC V2.10 B1702,2013-01-16 14:55:00,
2013-01-16 10:00:00,41.1,39.5,29.97,SE,134,2.0,3.0,94,0.00,,,0.52,LWC V2.10 B1702,2013-01-16 15:00:00,
2013-01-16 10:05:00,41.3,40.0,29.96,SE,133,3.0,9.0,95,0.00,,,0.52,LWC V2.10 B1702,2013-01-16 15:05:00,
2013-01-16 10:10:00,41.3,39.7,29.95,ESE,109,5.0,7.0,94,0.00,,,0.52,LWC V2.10 B1702,2013-01-16 15:10:00,
2013-01-16 10:15:00,41.4,39.8,29.95,ESE,114,7.0,7.0,94,0.00,,,0.52,LWC V2.10 B1702,2013-01-16 15:15:00,
2013-01-16 10:20:00,41.4,39.8,29.94,SSE,166,3.0,9.0,94,0.00,,,0.52,LWC V2.10 B1702,2013-01-16 15:20:00,
2013-01-16 10:25:00,41.4,39.8,29.94,ESE,119,4.0,4.0,94,0.00,,,0.52,LWC V2.10 B1702,2013-01-16 15:25:00,
2013-01-16 10:30:00,41.4,39.8,29.92,South,171,5.0,6.0,94,0.00,,,0.52,LWC V2.10 B1702,2013-01-16 15:30:00,
2013-01-16 10:35:00,41.4,39.8,29.92,ENE,78,3.0,10.0,94,0.00,,,0.52,LWC V2.10 B1702,2013-01-16 15:35:00,
2013-01-16 10:40:00,41.4,39.8,29.92,South,171,3.0,7.0,94,0.00,,,0.52,LWC V2.10 B1702,2013-01-16 15:40:00,
2013-01-16 10:45:00,41.4,39.8,29.91,ENE,68,2.0,5.0,94,0.00,,,0.52,LWC V2.10 B1702,2013-01-16 15:45:00,
2013-01-16 10:50:00,41.4,39.8,29.91,SE,126,6.0,6.0,94,0.00,,,0.52,LWC V2.10 B1702,2013-01-16 15:50:00,
2013-01-16 10:55:00,41.4,39.8,29.91,East,89,0.0,5.0,94,0.00,,,0.52,LWC V2.10 B1702,2013-01-16 15:55:00,
2013-01-16 11:00:00,41.3,39.7,29.91,East,85,0.0,4.0,94,0.00,,,0.52,LWC V2.10 B1702,2013-01-16 16:00:00,
2013-01-16 11:05:00,41.3,39.7,29.90,SE,132,1.0,3.0,94,0.00,,,0.52,LWC V2.10 B1702,2013-01-16 16:05:00,
2013-01-16 11:10:00,41.3,39.4,29.90,ESE,120,1.0,3.0,93,0.00,,,0.52,LWC V2.10 B1702,2013-01-16 16:10:00,
2013-01-16 11:15:00,41.4,39.8,29.89,ESE,122,2.0,3.0,94,0.00,,,0.52,LWC V2.10 B1702,2013-01-16 16:15:00,
2013-01-16 11:20:00,41.4,39.8,29.89,ESE,105,1.0,4.0,94,0.00,,,0.52,LWC V2.10 B1702,2013-01-16 16:20:00,
2013-01-16 11:25:00,41.4,39.8,29.88,SE,133,0.0,3.0,94,0.00,,,0.52,LWC V2.10 B1702,2013-01-16 16:25:00,
2013-01-16 11:30:00,41.4,39.5,29.89,SSE,157,1.0,2.0,93,0.00,,,0.52,LWC V2.10 B1702,2013-01-16 16:30:00,
2013-01-16 11:35:00,41.4,39.5,29.88,SSE,152,1.0,3.0,93,0.00,,,0.52,LWC V2.10 B1702,2013-01-16 16:35:00,
2013-01-16 11:40:00,41.4,39.5,29.88,ESE,123,0.0,3.0,93,0.00,,,0.52,LWC V2.10 B1702,2013-01-16 16:40:00,
2013-01-16 11:45:00,41.4,39.5,29.88,ESE,122,3.0,5.0,93,0.00,,,0.52,LWC V2.10 B1702,2013-01-16 16:45:00,
2013-01-16 11:50:00,41.4,39.5,29.88,ESE,116,1.0,5.0,93,0.00,,,0.52,LWC V2.10 B1702,2013-01-16 16:50:00,
2013-01-16 11:55:00,41.4,39.5,29.88,East,83,1.0,2.0,93,0.00,,,0.52,LWC V2.10 B1702,2013-01-16 16:55:00,
2013-01-16 12:00:00,41.4,39.5,29.88,SE,131,0.0,1.0,93,0.00,,,0.52,LWC V2.10 B1702,2013-01-16 17:00:00,
2013-01-16 12:05:00,41.5,39.6,29.88,ESE,117,0.0,1.0,93,0.00,,,0.52,LWC V2.10 B1702,2013-01-16 17:05:00,
2013-01-16 12:10:00,41.4,39.5,29.88,SE,131,0.0,2.0,93,0.00,,,0.52,LWC V2.10 B1702,2013-01-16 17:10:00,
2013-01-16 12:15:00,41.4,39.5,29.88,South,173,1.0,2.0,93,0.00,,,0.52,LWC V2.10 B1702,2013-01-16 17:15:00,
2013-01-16 12:20:00,41.4,39.5,29.87,SE,142,3.0,3.0,93,0.00,,,0.52,LWC V2.10 B1702,2013-01-16 17:20:00,
2013-01-16 12:25:00,41.4,39.5,29.86,SSE,153,0.0,2.0,93,0.00,,,0.53,LWC V2.10 B1702,2013-01-16 17:25:00,
2013-01-16 12:30:00,41.4,39.5,29.86,ESE,108,1.0,2.0,93,0.00,,,0.53,LWC V2.10 B1702,2013-01-16 17:30:00,
2013-01-16 12:35:00,41.4,39.5,29.86,SE,146,2.0,4.0,93,0.00,,,0.53,LWC V2.10 B1702,2013-01-16 17:35:00,
2013-01-16 12:40:00,41.4,39.5,29.87,North,355,0.0,0.0,93,0.00,,,0.53,LWC V2.10 B1702,2013-01-16 17:40:00,
2013-01-16 12:45:00,41.4,39.5,29.87,ESE,123,2.0,3.0,93,0.00,,,0.53,LWC V2.10 B1702,2013-01-16 17:45:00,
2013-01-16 12:50:00,41.5,39.6,29.88,NNW,342,0.0,3.0,93,0.00,,,0.53,LWC V2.10 B1702,2013-01-16 17:50:00,
2013-01-16 12:55:00,41.4,39.5,29.87,East,87,0.0,1.0,93,0.00,,,0.53,LWC V2.10 B1702,2013-01-16 17:55:00,
2013-01-16 13:00:00,41.5,39.6,29.86,NNE,24,1.0,2.0,93,0.00,,,0.53,LWC V2.10 B1702,2013-01-16 18:00:00,
2013-01-16 13:05:00,41.5,39.6,29.86,NNE,30,0.0,0.0,93,0.00,,,0.54,LWC V2.10 B1702,2013-01-16 18:05:00,
2013-01-16 13:10:00,41.5,39.6,29.86,NNE,30,0.0,0.0,93,0.00,,,0.54,LWC V2.10 B1702,2013-01-16 18:10:00,
2013-01-16 13:15:00,41.5,39.6,29.87,NNE,30,0.0,0.0,93,0.00,,,0.54,LWC V2.10 B1702,2013-01-16 18:15:00,
2013-01-16 13:20:00,41.5,39.6,29.87,NNE,30,0.0,0.0,93,0.00,,,0.54,LWC V2.10 B1702,2013-01-16 18:20:00,
2013-01-16 13:25:00,41.6,40.0,29.86,NNE,30,0.0,0.0,94,0.00,,,0.55,LWC V2.10 B1702,2013-01-16 18:25:00,
2013-01-16 13:30:00,41.6,40.0,29.86,NNE,30,0.0,0.0,94,0.00,,,0.55,LWC V2.10 B1702,2013-01-16 18:30:00,
2013-01-16 13:35:00,41.6,40.0,29.86,NNE,30,0.0,0.0,94,0.00,,,0.55,LWC V2.10 B1702,2013-01-16 18:35:00,
2013-01-16 13:40:00,41.6,40.0,29.86,NNE,30,0.0,0.0,94,0.00,,,0.55,LWC V2.10 B1702,2013-01-16 18:40:00,
2013-01-16 13:45:00,41.6,40.0,29.86,NNE,30,0.0,0.0,94,0.00,,,0.55,LWC V2.10 B1702,2013-01-16 18:45:00,
2013-01-16 13:50:00,41.6,39.7,29.86,NNE,27,0.0,2.0,93,0.00,,,0.56,LWC V2.10 B1702,2013-01-16 18:50:00,
2013-01-16 13:55:00,41.6,40.0,29.85,NNE,27,0.0,0.0,94,0.00,,,0.56,LWC V2.10 B1702,2013-01-16 18:55:00,
2013-01-16 14:01:00,41.6,40.0,29.85,NNE,27,0.0,0.0,94,0.00,,,0.56,LWC V2.10 B1702,2013-01-16 19:01:00,
2013-01-16 14:06:00,41.6,40.0,29.84,NNE,27,0.0,0.0,94,0.00,,,0.56,LWC V2.10 B1702,2013-01-16 19:06:00,
2013-01-16 14:11:00,41.6,40.0,29.84,NNE,27,0.0,0.0,94,0.00,,,0.56,LWC V2.10 B1702,2013-01-16 19:11:00,
2013-01-16 14:16:00,41.6,40.0,29.83,NNE,27,0.0,0.0,94,0.00,,,0.56,LWC V2.10 B1702,2013-01-16 19:16:00,
2013-01-16 14:21:00,41.6,40.0,29.82,NNE,27,0.0,0.0,94,0.00,,,0.56,LWC V2.10 B1702,2013-01-16 19:21:00,
2013-01-16 14:26:00,41.6,40.0,29.80,NNE,27,0.0,0.0,94,0.00,,,0.56,LWC V2.10 B1702,2013-01-16 19:26:00,
2013-01-16 14:31:00,41.6,40.0,29.80,SE,139,0.0,1.0,94,0.00,,,0.56,LWC V2.10 B1702,2013-01-16 19:31:00,
2013-01-16 14:36:00,41.6,39.7,29.79,SE,125,2.0,3.0,93,0.00,,,0.56,LWC V2.10 B1702,2013-01-16 19:36:00,
2013-01-16 14:41:00,41.5,39.6,29.76,SE,136,2.0,3.0,93,0.00,,,0.56,LWC V2.10 B1702,2013-01-16 19:41:00,
2013-01-16 14:46:00,41.5,39.6,29.75,ESE,123,3.0,3.0,93,0.00,,,0.56,LWC V2.10 B1702,2013-01-16 19:46:00,
2013-01-16 14:51:00,41.4,39.5,29.74,SE,130,2.0,2.0,93,0.00,,,0.56,LWC V2.10 B1702,2013-01-16 19:51:00,
2013-01-16 14:56:00,41.4,39.5,29.73,ESE,114,4.0,4.0,93,0.00,,,0.56,LWC V2.10 B1702,2013-01-16 19:56:00,
2013-01-16 15:01:00,41.3,39.4,29.72,SE,130,2.0,4.0,93,0.00,,,0.56,LWC V2.10 B1702,2013-01-16 20:01:00,
2013-01-16 15:06:00,41.3,39.4,29.72,SE,140,0.0,4.0,93,0.00,,,0.56,LWC V2.10 B1702,2013-01-16 20:06:00,
2013-01-16 15:11:00,41.3,39.7,29.74,SE,143,0.0,2.0,94,0.00,,,0.56,LWC V2.10 B1702,2013-01-16 20:11:00,
2013-01-16 15:16:00,41.5,39.9,29.75,North,11,0.0,1.0,94,0.00,,,0.56,LWC V2.10 B1702,2013-01-16 20:16:00,
2013-01-16 15:21:00,41.5,39.9,29.75,NNE,28,2.0,3.0,94,0.00,,,0.56,LWC V2.10 B1702,2013-01-16 20:21:00,
2013-01-16 15:26:00,41.6,40.0,29.75,NE,51,0.0,1.0,94,0.00,,,0.56,LWC V2.10 B1702,2013-01-16 20:26:00,
2013-01-16 15:31:00,41.6,40.0,29.77,NNW,346,3.0,3.0,94,0.00,,,0.56,LWC V2.10 B1702,2013-01-16 20:31:00,
2013-01-16 15:36:00,41.7,40.1,29.78,NNW,346,0.0,3.0,94,0.00,,,0.56,LWC V2.10 B1702,2013-01-16 20:36:00,
2013-01-16 15:41:00,41.6,40.0,29.79,NNW,329,4.0,5.0,94,0.00,,,0.56,LWC V2.10 B1702,2013-01-16 20:41:00,
2013-01-16 15:46:00,41.4,39.8,29.79,NNW,327,1.0,5.0,94,0.00,,,0.56,LWC V2.10 B1702,2013-01-16 20:46:00,
2013-01-16 15:51:00,41.0,39.1,29.79,NNE,32,1.0,6.0,93,0.00,,,0.56,LWC V2.10 B1702,2013-01-16 20:51:00,
2013-01-16 15:56:00,40.5,38.6,29.80,North,349,2.0,2.0,93,0.00,,,0.56,LWC V2.10 B1702,2013-01-16 20:56:00,
2013-01-16 16:01:00,40.1,38.2,29.81,North,10,5.0,6.0,93,0.00,,,0.56,LWC V2.10 B1702,2013-01-16 21:01:00,
2013-01-16 16:06:00,39.7,37.8,29.81,NNW,333,0.0,2.0,93,0.00,,,0.56,LWC V2.10 B1702,2013-01-16 21:06:00,
2013-01-16 16:11:00,39.4,37.5,29.82,NNW,342,0.0,1.0,93,0.00,,,0.56,LWC V2.10 B1702,2013-01-16 21:11:00,
2013-01-16 16:16:00,39.1,37.2,29.81,NNE,22,2.0,3.0,93,0.00,,,0.56,LWC V2.10 B1702,2013-01-16 21:16:00,
2013-01-16 16:21:00,38.9,37.1,29.81,NNW,339,3.0,3.0,93,0.00,,,0.56,LWC V2.10 B1702,2013-01-16 21:21:00,
2013-01-16 16:26:00,38.8,37.0,29.81,NNE,24,0.0,3.0,93,0.00,,,0.56,LWC V2.10 B1702,2013-01-16 21:26:00,
2013-01-16 16:31:00,38.7,36.9,29.82,NNW,344,2.0,2.0,93,0.00,,,0.56,LWC V2.10 B1702,2013-01-16 21:31:00,
2013-01-16 16:36:00,38.6,36.8,29.82,NNW,346,0.0,2.0,93,0.00,,,0.56,LWC V2.10 B1702,2013-01-16 21:36:00,
2013-01-16 16:41:00,38.6,36.8,29.83,NW,313,3.0,3.0,93,0.00,,,0.56,LWC V2.10 B1702,2013-01-16 21:41:00,
2013-01-16 16:46:00,38.5,36.7,29.83,North,349,2.0,4.0,93,0.00,,,0.56,LWC V2.10 B1702,2013-01-16 21:46:00,
2013-01-16 16:51:00,38.4,36.6,29.82,NW,314,1.0,3.0,93,0.00,,,0.56,LWC V2.10 B1702,2013-01-16 21:51:00,
2013-01-16 16:56:00,38.3,36.5,29.83,North,350,0.0,0.0,93,0.00,,,0.56,LWC V2.10 B1702,2013-01-16 21:56:00,
2013-01-16 17:01:00,38.3,36.5,29.82,North,350,0.0,0.0,93,0.00,,,0.56,LWC V2.10 B1702,2013-01-16 22:01:00,
2013-01-16 17:06:00,38.2,36.4,29.82,North,350,0.0,1.0,93,0.00,,,0.56,LWC V2.10 B1702,2013-01-16 22:06:00,
2013-01-16 17:11:00,38.3,36.5,29.82,North,350,0.0,2.0,93,0.00,,,0.56,LWC V2.10 B1702,2013-01-16 22:11:00,
2013-01-16 17:16:00,38.2,36.4,29.82,NW,325,0.0,1.0,93,0.00,,,0.56,LWC V2.10 B1702,2013-01-16 22:16:00,
2013-01-16 17:21:00,38.2,36.4,29.83,WNW,288,2.0,3.0,93,0.00,,,0.56,LWC V2.10 B1702,2013-01-16 22:21:00,
2013-01-16 17:26:00,38.1,36.3,29.83,NNW,330,4.0,4.0,93,0.00,,,0.56,LWC V2.10 B1702,2013-01-16 22:26:00,
2013-01-16 17:31:00,38.0,36.2,29.83,North,0,2.0,6.0,93,0.00,,,0.56,LWC V2.10 B1702,2013-01-16 22:31:00,
2013-01-16 17:36:00,37.8,36.0,29.83,North,351,4.0,4.0,93,0.00,,,0.56,LWC V2.10 B1702,2013-01-16 22:36:00,
2013-01-16 17:41:00,37.7,35.9,29.83,NNW,340,1.0,4.0,93,0.00,,,0.56,LWC V2.10 B1702,2013-01-16 22:41:00,
2013-01-16 17:46:00,37.7,35.9,29.83,North,5,0.0,2.0,93,0.00,,,0.56,LWC V2.10 B1702,2013-01-16 22:46:00,
2013-01-16 17:51:00,37.6,35.8,29.82,North,355,2.0,2.0,93,0.00,,,0.56,LWC V2.10 B1702,2013-01-16 22:51:00,
2013-01-16 17:56:00,37.5,35.7,29.83,NNW,344,2.0,3.0,93,0.00,,,0.56,LWC V2.10 B1702,2013-01-16 22:56:00,
2013-01-16 18:01:00,37.4,35.6,29.83,NNW,342,2.0,2.0,93,0.00,,,0.56,LWC V2.10 B1702,2013-01-16 23:01:00,
2013-01-16 18:06:00,37.4,35.6,29.83,North,355,0.0,1.0,93,0.00,,,0.56,LWC V2.10 B1702,2013-01-16 23:06:00,
2013-01-16 18:11:00,37.4,35.6,29.82,NNW,344,0.0,1.0,93,0.00,,,0.56,LWC V2.10 B1702,2013-01-16 23:11:00,
2013-01-16 18:16:00,37.3,35.5,29.83,NNE,13,0.0,2.0,93,0.00,,,0.56,LWC V2.10 B1702,2013-01-16 23:16:00,
2013-01-16 18:21:00,37.3,35.7,29.83,NNE,13,2.0,2.0,94,0.00,,,0.56,LWC V2.10 B1702,2013-01-16 23:21:00,
2013-01-16 18:26:00,37.3,35.7,29.83,NNE,13,0.0,0.0,94,0.00,,,0.56,LWC V2.10 B1702,2013-01-16 23:26:00,
2013-01-16 18:31:00,37.3,35.7,29.84,NNE,13,1.0,1.0,94,0.00,,,0.56,LWC V2.10 B1702,2013-01-16 23:31:00,
2013-01-16 18:36:00,37.3,35.7,29.83,NNE,13,0.0,2.0,94,0.00,,,0.56,LWC V2.10 B1702,2013-01-16 23:36:00,
2013-01-16 18:41:00,37.4,35.8,29.83,NNE,13,0.0,0.0,94,0.00,,,0.56,LWC V2.10 B1702,2013-01-16 23:41:00,
2013-01-16 18:46:00,37.4,35.8,29.83,NW,311,0.0,2.0,94,0.00,,,0.56,LWC V2.10 B1702,2013-01-16 23:46:00,
2013-01-16 18:51:00,37.3,35.7,29.84,NNW,340,1.0,2.0,94,0.00,,,0.56,LWC V2.10 B1702,2013-01-16 23:51:00,
2013-01-16 18:56:00,37.3,35.7,29.83,NW,314,0.0,0.0,94,0.00,,,0.56,LWC V2.10 B1702,2013-01-16 23:56:00,
2013-01-16 19:01:00,37.3,35.7,29.83,WNW,301,0.0,0.0,94,0.00,,,0.56,LWC V2.10 B1702,2013-01-17 00:01:00,
2013-01-16 19:06:00,37.3,35.7,29.84,WNW,301,1.0,1.0,94,0.00,,,0.56,LWC V2.10 B1702,2013-01-17 00:06:00,
2013-01-16 19:11:00,37.2,35.4,29.84,WNW,303,0.0,1.0,93,0.00,,,0.56,LWC V2.10 B1702,2013-01-17 00:11:00,
2013-01-16 19:16:00,37.1,35.5,29.84,NNW,329,0.0,2.0,94,0.00,,,0.56,LWC V2.10 B1702,2013-01-17 00:16:00,
2013-01-16 19:21:00,37.1,35.5,29.84,NNW,335,0.0,3.0,94,0.00,,,0.56,LWC V2.10 B1702,2013-01-17 00:21:00,
2013-01-16 19:26:00,37.0,35.2,29.83,NNW,343,2.0,3.0,93,0.00,,,0.56,LWC V2.10 B1702,2013-01-17 00:26:00,
2013-01-16 19:31:00,37.0,35.2,29.83,NNE,19,0.0,4.0,93,0.00,,,0.56,LWC V2.10 B1702,2013-01-17 00:31:00,
2013-01-16 19:36:00,37.0,35.2,29.82,NNE,19,0.0,0.0,93,0.00,,,0.56,LWC V2.10 B1702,2013-01-17 00:36:00,
2013-01-16 19:41:00,36.9,35.3,29.83,NW,318,0.0,2.0,94,0.00,,,0.56,LWC V2.10 B1702,2013-01-17 00:41:00,
2013-01-16 19:46:00,36.9,35.3,29.83,NW,317,0.0,1.0,94,0.00,,,0.56,LWC V2.10 B1702,2013-01-17 00:46:00,
2013-01-16 19:51:00,36.9,35.3,29.83,NW,317,0.0,0.0,94,0.00,,,0.56,LWC V2.10 B1702,2013-01-17 00:51:00,
2013-01-16 19:56:00,36.9,35.3,29.83,NW,317,0.0,0.0,94,0.00,,,0.56,LWC V2.10 B1702,2013-01-17 00:56:00,
2013-01-16 20:01:00,36.9,35.3,29.82,NW,317,0.0,0.0,94,0.00,,,0.56,LWC V2.10 B1702,2013-01-17 01:01:00,
2013-01-16 20:06:00,36.9,35.3,29.83,NW,317,0.0,1.0,94,0.00,,,0.56,LWC V2.10 B1702,2013-01-17 01:06:00,
2013-01-16 20:11:00,36.8,35.2,29.83,NW,317,0.0,0.0,94,0.00,,,0.56,LWC V2.10 B1702,2013-01-17 01:11:00,
2013-01-16 20:16:00,36.8,35.2,29.83,NW,317,0.0,0.0,94,0.00,,,0.56,LWC V2.10 B1702,2013-01-17 01:16:00,
2013-01-16 20:21:00,36.8,35.2,29.83,NW,317,0.0,0.0,94,0.00,,,0.56,LWC V2.10 B1702,2013-01-17 01:21:00,
2013-01-16 20:26:00,36.8,35.2,29.83,NW,317,0.0,1.0,94,0.00,,,0.56,LWC V2.10 B1702,2013-01-17 01:26:00,
2013-01-16 20:31:00,36.8,35.2,29.83,NNW,334,1.0,2.0,94,0.00,,,0.56,LWC V2.10 B1702,2013-01-17 01:31:00,
2013-01-16 20:36:00,36.8,35.2,29.83,NW,322,0.0,1.0,94,0.00,,,0.56,LWC V2.10 B1702,2013-01-17 01:36:00,
2013-01-16 20:41:00,36.8,35.2,29.83,NW,322,0.0,0.0,94,0.00,,,0.56,LWC V2.10 B1702,2013-01-17 01:41:00,
2013-01-16 20:46:00,36.8,35.2,29.83,NW,322,0.0,0.0,94,0.00,,,0.56,LWC V2.10 B1702,2013-01-17 01:46:00,
2013-01-16 20:51:00,36.7,35.1,29.83,NW,322,0.0,0.0,94,0.00,,,0.56,LWC V2.10 B1702,2013-01-17 01:51:00,
2013-01-16 20:56:00,36.7,35.1,29.83,WNW,298,1.0,1.0,94,0.00,,,0.56,LWC V2.10 B1702,2013-01-17 01:56:00,
2013-01-16 21:01:00,36.7,35.1,29.83,WNW,298,0.0,1.0,94,0.00,,,0.56,LWC V2.10 B1702,2013-01-17 02:01:00,
2013-01-16 21:06:00,36.6,35.0,29.84,WNW,298,0.0,2.0,94,0.00,,,0.56,LWC V2.10 B1702,2013-01-17 02:06:00,
2013-01-16 21:11:00,36.6,35.0,29.85,WNW,298,0.0,0.0,94,0.00,,,0.56,LWC V2.10 B1702,2013-01-17 02:11:00,
2013-01-16 21:16:00,36.6,35.0,29.84,WNW,302,0.0,0.0,94,0.00,,,0.56,LWC V2.10 B1702,2013-01-17 02:16:00,
2013-01-16 21:21:00,36.6,35.0,29.84,West,276,0.0,1.0,94,0.00,,,0.56,LWC V2.10 B1702,2013-01-17 02:21:00,
2013-01-16 21:26:00,36.7,35.1,29.84,WNW,286,0.0,2.0,94,0.00,,,0.56,LWC V2.10 B1702,2013-01-17 02:26:00,
2013-01-16 21:31:00,36.7,35.1,29.85,WNW,286,0.0,2.0,94,0.00,,,0.56,LWC V2.10 B1702,2013-01-17 02:31:00,
2013-01-16 21:36:00,36.8,35.2,29.85,WNW,286,0.0,1.0,94,0.00,,,0.56,LWC V2.10 B1702,2013-01-17 02:36:00,
2013-01-16 21:41:00,36.8,35.2,29.85,West,278,0.0,3.0,94,0.00,,,0.56,LWC V2.10 B1702,2013-01-17 02:41:00,
2013-01-16 21:46:00,36.8,35.2,29.85,WNW,297,2.0,4.0,94,0.00,,,0.56,LWC V2.10 B1702,2013-01-17 02:46:00,
2013-01-16 21:51:00,36.9,35.3,29.84,WNW,297,0.0,0.0,94,0.00,,,0.56,LWC V2.10 B1702,2013-01-17 02:51:00,
2013-01-16 21:56:00,36.9,35.3,29.84,WSW,248,2.0,2.0,94,0.00,,,0.56,LWC V2.10 B1702,2013-01-17 02:56:00,
2013-01-16 22:01:00,36.9,35.3,29.84,WNW,283,0.0,1.0,94,0.00,,,0.56,LWC V2.10 B1702,2013-01-17 03:01:00,
2013-01-16 22:06:00,36.9,35.3,29.84,WNW,298,0.0,2.0,94,0.00,,,0.56,LWC V2.10 B1702,2013-01-17 03:06:00,
2013-01-16 22:11:00,37.0,35.4,29.84,WSW,254,2.0,2.0,94,0.00,,,0.56,LWC V2.10 B1702,2013-01-17 03:11:00,
2013-01-16 22:16:00,37.0,35.4,29.84,West,279,1.0,2.0,94,0.00,,,0.56,LWC V2.10 B1702,2013-01-17 03:16:00,
2013-01-16 22:21:00,37.0,35.4,29.84,WNW,301,2.0,3.0,94,0.00,,,0.56,LWC V2.10 B1702,2013-01-17 03:21:00,
2013-01-16 22:26:00,37.0,35.4,29.85,WNW,296,2.0,2.0,94,0.00,,,0.56,LWC V2.10 B1702,2013-01-17 03:26:00,
2013-01-16 22:31:00,37.1,35.5,29.85,WNW,289,2.0,6.0,94,0.00,,,0.56,LWC V2.10 B1702,2013-01-17 03:31:00,
2013-01-16 22:36:00,37.1,35.5,29.84,West,259,3.0,3.0,94,0.00,,,0.56,LWC V2.10 B1702,2013-01-17 03:36:00,
2013-01-16 22:41:00,37.2,35.6,29.84,WNW,295,1.0,2.0,94,0.00,,,0.56,LWC V2.10 B1702,2013-01-17 03:41:00,
2013-01-16 22:46:00,37.2,35.6,29.84,WSW,254,0.0,4.0,94,0.00,,,0.56,LWC V2.10 B1702,2013-01-17 03:46:00,
2013-01-16 22:51:00,37.2,35.6,29.85,West,265,2.0,5.0,94,0.00,,,0.56,LWC V2.10 B1702,2013-01-17 03:51:00,
2013-01-16 22:56:00,37.3,35.7,29.85,West,275,1.0,3.0,94,0.00,,,0.56,LWC V2.10 B1702,2013-01-17 03:56:00,
2013-01-16 23:01:00,37.4,35.8,29.85,NW,319,1.0,4.0,94,0.00,,,0.56,LWC V2.10 B1702,2013-01-17 04:01:00,
2013-01-16 23:06:00,37.4,35.8,29.85,WNW,300,2.0,5.0,94,0.00,,,0.56,LWC V2.10 B1702,2013-01-17 04:06:00,
2013-01-16 23:11:00,37.5,35.9,29.86,WNW,287,3.0,7.0,94,0.00,,,0.56,LWC V2.10 B1702,2013-01-17 04:11:00,
2013-01-16 23:16:00,37.5,35.9,29.86,West,268,1.0,5.0,94,0.00,,,0.56,LWC V2.10 B1702,2013-01-17 04:16:00,
2013-01-16 23:21:00,37.5,35.9,29.86,West,267,5.0,6.0,94,0.00,,,0.56,LWC V2.10 B1702,2013-01-17 04:21:00,
2013-01-16 23:26:00,37.5,35.9,29.85,West,266,3.0,4.0,94,0.00,,,0.56,LWC V2.10 B1702,2013-01-17 04:26:00,
2013-01-16 23:31:00,37.5,35.9,29.85,West,272,2.0,3.0,94,0.00,,,0.56,LWC V2.10 B1702,2013-01-17 04:31:00,
2013-01-16 23:36:00,37.5,35.7,29.86,West,275,5.0,5.0,93,0.00,,,0.56,LWC V2.10 B1702,2013-01-17 04:36:00,
2013-01-16 23:41:00,37.5,35.7,29.86,West,277,0.0,5.0,93,0.00,,,0.56,LWC V2.10 B1702,2013-01-17 04:41:00,
2013-01-16 23:46:00,37.5,35.7,29.86,WNW,284,5.0,5.0,93,0.00,,,0.56,LWC V2.10 B1702,2013-01-17 04:46:00,
2013-01-16 23:51:00,37.5,35.7,29.86,WNW,286,1.0,4.0,93,0.00,,,0.56,LWC V2.10 B1702,2013-01-17 04:51:00,
2013-01-16 23:56:00,37.4,35.6,29.86,WNW,300,2.0,4.0,93,0.00,,,0.56,LWC V2.10 B1702,2013-01-17 04:56:00,